Location: Hilton Head Island
(32.2163°N, 80.7526°W)
Time: 08:32:36
(UTC-04:00)

Vanguard 2 Rocket - Pass Details

Date: 21 February 2026
Orbit: 553 x 3286 km, 32.9° (Epoch: 16 March)

Event Time Altitude Azimuth Distance (km) Brightness Sun altitude
Rises 07:04:08 0° 177° (S) 6,211 11.4 0.2°
Reaches altitude 10° 07:12:02 10° 154° (SSE) 5,741 11.6 1.8°
Maximum altitude 07:18:57 13° 131° (SE) 5,773 12.3 3.2°
Drops below altitude 10° 07:26:18 10° 108° (ESE) 6,217 14.1 4.7°
Sets 07:35:32 0° 87° (E) 7,193 13.1 6.6°
